Regional Weather Roundup
Issued by NWS

Home | Current Version | Previous Version | Text Only | Print | Product List | Glossary Off
Versions: 1 2 3 4 5 6 7 8 9 10 11 12 13 14 15 16 17 18 19 20 21 22 23 24 25 26 27 28 29 30 31 32 33 34 35 36 37 38 39 40 41 42 43 44 45 46 47 48 49 50

000
ASUS43 KMKX 222321
RWRWI

WISCONSIN REGIONAL WEATHER ROUNDUP
NATIONAL WEATHER SERVICE MILWAUKEE/SULLIVAN WI
600 PM CDT MON SEP 22 2014

NOTE: "FAIR" INDICATES FEW OR NO CLOUDS BELOW 12,000 FEET WITH NO
SIGNIFICANT WEATHER AND/OR OBSTRUCTIONS TO VISIBILITY.

WIZ001-002-006>008-014>016-023>028-230000-
NORTHWEST WISCONSIN

CITY           SKY/WX    TMP DP  RH WIND       PRES   REMARKS
SUPERIOR ARPT  SUNNY     70  52  52 W8        30.10S
ASHLAND        CLEAR     68  53  58 SW5       30.11F
HAYWARD        SUNNY     67  50  54 SW7       30.15S
SIREN          SUNNY     69  50  51 W7        30.15S
RICE LAKE      SUNNY     67  49  54 SW6       30.18S
LADYSMITH      CLEAR     66  51  57 SW5       30.18S
EAU CLAIRE     SUNNY     68  50  52 W6        30.17F
MENOMONIE      CLEAR     69  49  49 SW5       30.17F
NEW RICHMOND   SUNNY     69  48  47 W6        30.17S
OSCEOLA        SUNNY     69  52  54 SW7       30.18F
$$

WIZ003>005-009-010-017-018-230000-
NORTH CENTRAL WISCONSIN

CITY           SKY/WX    TMP DP  RH WIND       PRES   REMARKS
WOODRUFF       CLEAR     64  48  56 W6        30.15S
RHINELANDER    CLEAR     63  47  55 W6        30.16S
EAGLE RIVER    CLEAR     63  45  51 W7        30.14S
LAND O LAKES   CLEAR     64  47  55 SW3       30.14S
PHILLIPS       CLEAR     64  49  59 CALM      30.15S
TOMAHAWK       CLEAR     63  48  57 CALM      30.17S
MEDFORD        CLEAR     63  50  63 W6        30.17F
MERRILL        CLEAR     64  49  58 W8        30.17S
$$

WIZ029-030-035-036-043>047-230000-
CENTRAL WISCONSIN

CITY           SKY/WX    TMP DP  RH WIND       PRES   REMARKS
WAUSAU         CLEAR     64  49  57 W9        30.16S
MOSINEE        CLEAR     63  52  67 W8        30.18F
MARSHFIELD     CLEAR     65  50  58 W8        30.18S
STEVENS POINT  CLEAR     64  49  57 W7        30.18S
WAUPACA        CLEAR     68  50  52 W9        30.17S
WAUTOMA        PTCLDY    67  51  56 W7        30.19S
WISC RAPIDS    CLEAR     67  50  54 W10       30.19S
CAMP DOUGLAS   PTCLDY    66  54  63 W7        30.19S
$$

WIZ011>013-019>022-031-037>040-048>050-230000-
NORTHEAST WISCONSIN

CITY           SKY/WX    TMP DP  RH WIND       PRES   REMARKS
ANTIGO         CLEAR     62  50  65 W9        30.16S
STURGEON BAY   CLEAR     63  48  59 W6        30.15R
GREEN BAY      CLEAR     66  50  56 W9        30.16S
MANITOWOC      CLEAR     66  48  52 W7        30.17S
APPLETON       CLEAR     64  48  55 W8        30.17F
CLINTONVILLE   CLEAR     64  48  55 W6        30.16R
OSHKOSH        CLEAR     66  49  54 VRB7      30.17F
$$

WIZ032>034-041-042-053>061-230000-
SOUTHWEST WISCONSIN

CITY           SKY/WX    TMP DP  RH WIND       PRES   REMARKS
LA CROSSE      LGT RAIN  71  51  49 CALM      30.18F
SPARTA         CLEAR     68  49  50 W6        30.19F
VIROQUA        FAIR      67  49  52 W6        30.20S
BOSCOBEL       SUNNY     70  49  47 W6        30.20F
PRAIRIE DU CHI SUNNY     70  46  42 CALM      30.19S
PLATTEVILLE    FAIR      67  47  48 W7        30.22F
$$

WIZ056-057-062-063-064-067-068-230000-
SOUTH CENTRAL WISCONSIN

CITY           SKY/WX    TMP DP  RH WIND       PRES   REMARKS
BARABOO/DELLS  CLEAR     67  48  49 W6        30.20R
LONE ROCK      CLEAR     71  49  45 W8        30.20S
WATERTOWN      CLEAR     66  48  51 W7        30.20S
MADISON        PTCLDY    68  47  46 VRB3      30.21S
MIDDLETON      FAIR      67  48  50 W5        30.21S
MONROE         CLEAR     66  46  48 W8        30.22S
JANESVILLE     CLEAR     68  45  42 W7        30.21S
$$

WIZ051-052-058>065-066-070>072-230000-
SOUTHEAST WISCONSIN

CITY           SKY/WX    TMP DP  RH WIND       PRES   REMARKS
MILWAUKEE      PTCLDY    67  44  43 W9        30.20S
WAUKESHA       CLEAR     64  46  52 W9        30.21S
MILWAUKEE/TIMM CLEAR     66  43  42 W9        30.21S
RACINE         CLEAR     62  48  60 SE9       30.22S
BURLINGTON     CLEAR     64  45  49 W3        30.21S
KENOSHA        CLEAR     65  48  54 W3        30.21F
FOND DU LAC    CLEAR     66  48  52 W6        30.18F
SHEBOYGAN      CLEAR     65  48  54 W6        30.18F
WEST BEND      CLEAR     64  45  48 W6        30.20S
JUNEAU         PTCLDY    64  49  58 W5        30.21S
$$

LSZ147-162-230000-
LAKE SUPERIOR

STATION/POSITION TIME  TEMP    WIND        PRES    WAVE
                       AIR SEA DIR/SP/G            HT/PER
                 (UTC) (F)     (DEG/KT/KT) (MB)    (FT/S)
W MID LAKE BUOY  2250   53 47  210/ 12/ 12 1017.7F   2/ 4
DEVILS ISLAND    2300   63     230/ 16/ 20 1018.3F
PORT WING        2240   71     220/  7/ 10 1019.0F
SAXON HARBOR     2200   70     210/  6/ 11 1019.6F
$$

LMZ867-665-643>646-230000-
LAKE MICHIGAN

STATION/POSITION TIME  TEMP    WIND        PRES    WAVE
                       AIR SEA DIR/SP/G            HT/PER
                 (UTC) (F)     (DEG/KT/KT) (MB)    (FT/S)
N MID LAKE BUOY  2250   58 57  200/ 16/ 17 1020.0F   2/ 3
NORTHPORT PIER   2200   68     220/  3/  7 1019.6F
KEWAUNEE LAKESHO 2200   67     260/  6/ 12 1020.1F
SHEBOYGAN LAKESH 2300   61 54  180/ 13/ 14 1022.2F
PORT WASHINGTON  2200   61     190/  7/ 11 1022.7
ATWATER BUOY     2300   59     150/ 12/ 14 1023.5S
MILWAUKEE LAKESH 2100   58     140/ 11/ 13   N/A
S MID LAKE BUOY  2250   59 62  190/  8/ 10 1023.6F   2/ 6
KENOSHA   LAKESH 2300   59     170/ 11/ 14 1022.4F
$$

TC  - TEMPERATURE IN CELSIUS
VSB - VISIBILITY IN STATUTE MILES
WCI - WIND CHILL INDEX
HX  - HEAT INDEX




USA.gov is the U.S. government's official web portal to all federal, state and local government web resources and services.